| time (UTC) | temp F | wind direction | speed MPH | gust MPH | rain 1hr in | rain 24hr in | rain mn in | humidity % | barometer mb |
| 20260507043001 | 40 | 355 | 0.0 | 1.0 | 0.00 | 0.00 | 0.00 | 64 | 1015.6 |
| 20260507041500 | 39 | 355 | 0.0 | 1.0 | 0.00 | 0.00 | 0.00 | 65 | 1015.6 |
| 20260507040000 | 40 | 355 | 1.0 | 1.0 | 0.00 | 0.00 | 0.00 | 63 | 1015.6 |
| 20260507034501 | 42 | 355 | 0.0 | 1.0 | 0.00 | 0.00 | 0.00 | 59 | 1015.7 |
| 20260507033001 | 42 | 355 | 0.0 | 1.0 | 0.00 | 0.00 | 0.00 | 56 | 1015.6 |
| 20260507031501 | 43 | 355 | 0.0 | 2.0 | 0.00 | 0.00 | 0.00 | 55 | 1015.7 |
| 20260507030000 | 43 | 355 | 1.0 | 1.0 | 0.00 | 0.00 | 0.00 | 52 | 1015.7 |
| 20260507024500 | 44 | 355 | 0.0 | 2.0 | 0.00 | 0.00 | 0.00 | 52 | 1015.7 |
| 20260507023000 | 45 | 349 | 1.0 | 2.0 | 0.00 | 0.00 | 0.00 | 51 | 1015.7 |
| 20260507021501 | 46 | 349 | 1.0 | 2.0 | 0.00 | 0.00 | 0.00 | 48 | 1015.6 |
| 20260507020000 | 47 | 349 | 0.0 | 2.0 | 0.00 | 0.00 | 0.00 | 44 | 1015.5 |
| 20260507014501 | 47 | 323 | 1.0 | 3.0 | 0.00 | 0.00 | 0.00 | 43 | 1015.4 |
| 20260507013001 | 48 | 345 | 2.0 | 3.0 | 0.00 | 0.00 | 0.00 | 42 | 1015.3 |
| 20260507011500 | 49 | 313 | 2.0 | 8.0 | 0.00 | 0.00 | 0.00 | 40 | 1015.3 |
| 20260507010001 | 50 | 304 | 3.0 | 9.0 | 0.00 | 0.00 | 0.00 | 39 | 1015.3 |
| 20260507004501 | 51 | 320 | 5.0 | 12.0 | 0.00 | 0.00 | 0.00 | 38 | 1015.3 |
| 20260507003001 | 52 | 306 | 5.0 | 13.0 | 0.00 | 0.00 | 0.00 | 36 | 1015.2 |
| 20260507001501 | 52 | 313 | 5.0 | 16.0 | 0.00 | 0.00 | 0.00 | 37 | 1015.2 |
| 20260507000000 | 52 | 325 | 7.0 | 14.0 | 0.00 | 0.00 | 0.00 | 36 | 1015.2 |
| 20260506234501 | 52 | 305 | 7.0 | 20.0 | 0.00 | 0.00 | 0.00 | 36 | 1015.3 |
| 20260506233001 | 53 | 283 | 7.0 | 17.0 | 0.00 | 0.00 | 0.00 | 37 | 1015.6 |
| 20260506231500 | 53 | 297 | 5.0 | 16.0 | 0.00 | 0.00 | 0.00 | 37 | 1015.4 |
| 20260506230001 | 53 | 284 | 8.0 | 15.0 | 0.00 | 0.00 | 0.00 | 36 | 1015.6 |
| 20260506224501 | 53 | 292 | 13.0 | 20.0 | 0.00 | 0.00 | 0.00 | 36 | 1015.7 |
| 20260506223001 | 53 | 294 | 12.0 | 21.0 | 0.00 | 0.00 | 0.00 | 36 | 1015.7 |
| 20260506220001 | 52 | 314 | 8.0 | 22.0 | 0.00 | 0.00 | 0.00 | 38 | 1015.5 |
| 20260506214501 | 52 | 326 | 12.0 | 20.0 | 0.00 | 0.00 | 0.00 | 37 | 1015.6 |
| 20260506211501 | 52 | 319 | 13.0 | 20.0 | 0.00 | 0.00 | 0.00 | 38 | 1015.6 |
| 20260506210001 | 52 | 306 | 10.0 | 22.0 | 0.00 | 0.00 | 0.00 | 38 | 1015.9 |
| 20260506203001 | 52 | 297 | 9.0 | 20.0 | 0.00 | 0.00 | 0.00 | 39 | 1016.1 |
| 20260506201501 | 51 | 269 | 10.0 | 21.0 | 0.00 | 0.00 | 0.00 | 39 | 1016.2 |
| 20260506200000 | 50 | 302 | 12.0 | 20.0 | 0.00 | 0.00 | 0.00 | 40 | 1016.4 |
| 20260506194501 | 51 | 294 | 9.0 | 17.0 | 0.00 | 0.00 | 0.00 | 41 | 1016.5 |
| 20260506193001 | 50 | 310 | 11.0 | 20.0 | 0.00 | 0.00 | 0.00 | 40 | 1016.6 |
| 20260506191503 | 50 | 332 | 10.0 | 18.0 | 0.00 | 0.00 | 0.00 | 40 | 1016.6 |
| 20260506190002 | 50 | 300 | 9.0 | 18.0 | 0.00 | 0.00 | 0.00 | 41 | 1016.6 |
| 20260506184501 | 50 | 293 | 10.0 | 24.0 | 0.00 | 0.00 | 0.00 | 41 | 1016.5 |
| 20260506183001 | 49 | 293 | 11.0 | 20.0 | 0.00 | 0.00 | 0.00 | 41 | 1016.6 |
| 20260506181500 | 50 | 257 | 12.0 | 21.0 | 0.00 | 0.00 | 0.00 | 41 | 1016.6 |
| 20260506180001 | 49 | 286 | 9.0 | 18.0 | 0.00 | 0.00 | 0.00 | 43 | 1016.7 |
| 20260506174501 | 49 | 295 | 10.0 | 20.0 | 0.00 | 0.00 | 0.00 | 42 | 1016.8 |
| 20260506173001 | 49 | 300 | 9.0 | 20.0 | 0.00 | 0.00 | 0.00 | 42 | 1016.8 |
| 20260506170001 | 49 | 326 | 12.0 | 21.0 | 0.00 | 0.00 | 0.00 | 40 | 1016.9 |
| 20260506164501 | 49 | 311 | 10.0 | 21.0 | 0.00 | 0.00 | 0.00 | 41 | 1016.8 |
| 20260506163001 | 49 | 275 | 10.0 | 17.0 | 0.00 | 0.00 | 0.00 | 44 | 1016.8 |
| 20260506161500 | 48 | 313 | 9.0 | 20.0 | 0.00 | 0.00 | 0.00 | 43 | 1016.8 |
| 20260506160002 | 48 | 322 | 9.0 | 22.0 | 0.00 | 0.00 | 0.00 | 43 | 1016.7 |
| 20260506154501 | 48 | 351 | 7.0 | 18.0 | 0.00 | 0.00 | 0.00 | 43 | 1016.6 |
| 20260506153001 | 48 | 318 | 9.0 | 18.0 | 0.00 | 0.00 | 0.00 | 44 | 1016.7 |
| 20260506151501 | 47 | 308 | 9.0 | 20.0 | 0.00 | 0.00 | 0.00 | 45 | 1016.7 |
| 20260506144502 | 47 | 312 | 9.0 | 16.0 | 0.00 | 0.00 | 0.00 | 46 | 1016.6 |
| 20260506143002 | 46 | 331 | 9.0 | 15.0 | 0.00 | 0.00 | 0.00 | 47 | 1016.4 |
| 20260506134501 | 43 | 317 | 5.0 | 14.0 | 0.00 | 0.00 | 0.00 | 54 | 1016.5 |
| 20260506131501 | 42 | 326 | 6.0 | 10.0 | 0.00 | 0.00 | 0.00 | 59 | 1016.2 |
| 20260506130002 | 41 | 325 | 6.0 | 12.0 | 0.00 | 0.00 | 0.00 | 60 | 1015.9 |
| 20260506123002 | 40 | 333 | 5.0 | 10.0 | 0.00 | 0.00 | 0.00 | 63 | 1015.7 |
| 20260506121501 | 39 | 323 | 4.0 | 12.0 | 0.00 | 0.00 | 0.00 | 65 | 1015.4 |
| 20260506120001 | 38 | 326 | 3.0 | 6.0 | 0.00 | 0.00 | 0.00 | 68 | 1015.1 |
| 20260506114502 | 38 | 335 | 3.0 | 7.0 | 0.00 | 0.00 | 0.00 | 67 | 1014.7 |
| 20260506113001 | 38 | 349 | 3.0 | 7.0 | 0.00 | 0.00 | 0.00 | 67 | 1014.7 |
| 20260506111502 | 37 | 330 | 4.0 | 8.0 | 0.00 | 0.00 | 0.00 | 67 | 1014.6 |
| 20260506110001 | 37 | 330 | 4.0 | 8.0 | 0.00 | 0.00 | 0.00 | 67 | 1014.3 |
| 20260506104501 | 37 | 329 | 3.0 | 8.0 | 0.00 | 0.00 | 0.00 | 67 | 1014.2 |
| 20260506103001 | 38 | 334 | 5.0 | 8.0 | 0.00 | 0.00 | 0.00 | 66 | 1014.1 |
| 20260506100001 | 39 | 327 | 4.0 | 8.0 | 0.00 | 0.00 | 0.00 | 64 | 1013.9 |
| 20260506094501 | 38 | 329 | 3.0 | 8.0 | 0.00 | 0.00 | 0.00 | 64 | 1013.8 |
| 20260506093001 | 38 | 325 | 3.0 | 8.0 | 0.00 | 0.00 | 0.00 | 64 | 1013.6 |
| 20260506091502 | 38 | 329 | 3.0 | 8.0 | 0.00 | 0.00 | 0.00 | 64 | 1013.5 |
| 20260506090001 | 38 | 335 | 3.0 | 10.0 | 0.00 | 0.00 | 0.00 | 63 | 1013.3 |
| 20260506084501 | 39 | 338 | 5.0 | 9.0 | 0.00 | 0.00 | 0.00 | 61 | 1013.4 |
| 20260506083001 | 39 | 326 | 4.0 | 6.0 | 0.00 | 0.00 | 0.00 | 61 | 1013.3 |
| 20260506081502 | 38 | 316 | 2.0 | 3.0 | 0.00 | 0.00 | 0.00 | 62 | 1013.2 |
| 20260506073001 | 40 | 310 | 1.0 | 3.0 | 0.00 | 0.00 | 0.00 | 59 | 1013.5 |
| 20260506071501 | 41 | 309 | 1.0 | 6.0 | 0.00 | 0.00 | 0.00 | 57 | 1013.1 |
| 20260506061501 | 41 | 338 | 2.0 | 3.0 | 0.00 | 0.00 | 0.00 | 56 | 1012.5 |
| 20260506044501 | 45 | 333 | 1.0 | 3.0 | 0.00 | 0.00 | 0.00 | 50 | 1011.7 |